STARLINK-1021

Last updated on Thu Dec 12 2019 00:02:03 GMT+0000 (Coordinated Universal Time)

1 44726U 19074P 19345.58335648 .00052392 00000-0 37528-3 0 9997 2 44726 53.0095 21.4941 0002087 38.3042 24.4863 15.73200519 4739

Satellite not in orbit

STARLINK-1021